Wetbulb
73.40 77.11 77.45 73.82 59.71 54.57 51.43 55.43 60.84 59.01 59.29 62.53 64.37 62.38 61.26 62.44 59.17 55.35 69.26 71.75 73.40 73.24 74.63 75.42 77.43 77.15 76.53 76.61 76.64 76.40 76.31 76.40 76.19 76.08 76.15 75.94 75.26 75.42 75.31 75.67 75.36 74.86 75.01 74.49 74.36 74.31 74.95 75.38 75.28
75.08 75.17 76.84 69.99 53.85 48.55 51.42 58.89 58.93 59.73 62.14 63.76 63.59 63.20 62.11 61.05 66.85 66.97 68.41 72.74 73.63 72.82 73.89 74.99 77.27 77.51 76.93 76.74 76.62 76.34 76.59 76.68 76.24 76.41 76.37 76.28 75.82 75.58 75.49 75.26 75.55 75.31 75.15 74.77 75.02 75.78 75.91 75.75 75.80
76.99 77.48 70.11 65.09 53.69 51.01 52.79 60.15 60.05 61.75 63.65 62.81 61.92 64.05 63.16 62.92 67.36 67.60 70.89 73.11 72.18 71.98 73.70 74.28 77.53 77.71 77.10 77.12 76.79 76.74 76.73 76.42 76.67 76.63 76.55 76.81 76.39 75.97 75.52 75.29 75.51 76.03 76.02 76.09 76.20 76.05 75.78 75.74 76.14
75.97 71.30 68.96 57.92 53.43 57.14 57.34 60.20 63.10 62.22 63.48 64.07 63.28 59.78 64.27 69.05 67.70 69.87 72.05 72.54 70.54 71.91 72.88 76.64 77.14 77.07 77.22 77.13 77.14 77.10 76.85 76.75 76.68 76.73 76.80 76.69 76.95 76.70 76.44 76.38 76.35 76.67 76.92 76.87 76.77 76.45 76.02 75.80 76.03
69.07 66.07 57.58 54.96 55.93 58.48 60.41 63.02 62.99 61.12 62.21 62.42 63.02 59.87 61.14 67.36 70.26 70.87 70.33 70.71 70.89 72.74 74.51 75.21 77.81 76.98 77.34 77.14 77.31 77.35 77.07 77.01 76.74 77.17 77.06 76.85 76.85 76.96 76.95 76.90 76.97 76.88 76.99 76.82 76.71 76.52 75.94 75.58 75.36
61.35 62.50 54.60 52.84 56.06 59.34 61.31 63.30 62.94 62.12 62.68 62.71 61.50 61.12 61.61 68.49 68.36 68.52 69.83 70.19 73.11 73.36 74.28 74.51 76.63 77.29 77.32 77.05 76.86 77.07 77.08 77.20 77.04 77.17 77.04 77.15 77.29 77.15 77.08 77.02 77.05 76.85 77.02 76.83 75.92 75.64 75.25 74.92 74.75
61.06 57.27 54.50 55.48 56.28 57.88 59.53 64.35 61.85 61.62 61.80 61.92 64.10 59.74 63.14 66.70 68.19 68.84 69.85 71.57 73.21 73.72 73.26 74.13 74.46 75.42 77.29 77.21 77.14 77.00 77.32 77.14 77.44 77.34 77.19 77.06 76.91 77.38 77.44 77.41 77.33 77.22 77.09 76.39 75.44 75.77 75.14 75.22 74.97
64.57 58.37 55.82 56.52 55.91 57.21 62.45 63.79 64.96 62.96 62.19 66.29 65.71 59.33 59.57 66.47 68.82 69.38 70.84 71.52 71.97 72.39 73.44 72.53 73.27 73.60 73.62 74.48 77.36 77.28 76.84 77.44 77.31 77.23 77.29 77.43 77.19 77.06 77.08 77.65 77.73 76.72 76.72 76.11 75.72 75.66 75.39 75.62 75.49
66.52 57.84 53.28 56.10 57.59 59.82 63.03 61.55 65.65 66.56 63.37 64.40 65.34 63.63 65.11 69.13 69.71 69.52 69.14 70.09 70.77 72.01 71.98 73.11 73.23 72.85 72.63 73.16 74.86 76.59 76.96 76.63 77.04 76.91 77.15 77.17 73.82 74.41 75.36 76.39 77.05 77.25 76.86 76.30 76.00 75.97 75.94 75.91 75.74
62.46 56.27 57.73 61.21 61.59 60.05 62.49 62.51 63.40 62.62 62.24 62.22 63.47 64.97 67.61 68.77 68.62 67.03 67.05 67.53 68.96 69.20 70.18 72.39 72.48 72.45 72.11 74.50 73.31 72.87 74.06 73.60 73.48 73.63 74.20 74.01 73.16 72.85 74.93 75.97 77.10 77.25 76.99 76.55 76.33 76.24 75.96 75.55 72.64
62.76 58.21 61.65 60.94 63.22 63.85 62.28 62.77 65.57 61.33 59.49 62.13 61.50 63.16 66.22 66.96 66.47 66.41 66.94 67.53 68.15 68.60 69.06 71.03 71.81 70.48 70.17 71.67 71.96 72.27 72.56 72.83 72.65 72.39 72.72 72.84 73.42 73.28 73.44 73.44 74.10 73.71 76.53 73.71 74.98 74.04 73.39 72.49 72.10
59.77 63.44 63.71 63.86 63.42 63.68 62.67 64.86 62.81 62.25 61.94 64.88 64.87 64.57 64.58 64.63 65.54 65.47 65.29 65.59 67.74 68.06 70.64 71.22 70.64 69.52 69.89 72.18 71.28 72.09 71.61 71.97 72.32 72.22 72.24 71.78 72.00 71.95 70.34 71.61 72.37 72.68 73.35 72.97 72.68 72.53 72.70 72.60 72.49
60.14 62.14 64.31 65.12 63.45 63.51 64.56 62.14 61.21 62.09 64.44 65.39 65.02 64.63 63.73 63.79 64.80 65.96 66.32 67.19 68.45 68.22 69.63 70.40 69.10 69.75 71.70 70.95 71.11 71.71 71.63 71.48 71.58 71.05 72.15 72.55 71.82 71.54 71.82 71.58 72.51 72.26 72.76 72.73 71.58 71.32 71.66 72.45 72.00
62.46 62.15 61.51 64.03 62.02 64.26 61.56 61.67 61.13 62.43 64.23 63.65 63.84 62.84 63.23 63.26 62.88 63.39 65.76 65.78 67.89 68.63 68.08 69.28 69.51 70.76 71.13 71.30 71.31 71.14 70.94 71.60 72.06 71.72 71.41 71.53 71.65 71.89 71.74 72.04 71.84 71.73 72.56 72.04 70.97 70.65 71.38 71.85 72.08
62.42 59.41 60.56 61.20 63.41 62.53 63.88 58.77 59.63 62.14 63.19 62.05 62.40 62.67 62.95 64.55 63.65 64.24 66.51 66.09 67.38 69.28 70.28 70.74 71.56 72.58 71.87 71.31 71.01 69.55 70.00 71.72 71.66 71.84 72.72 72.13 72.01 72.29 72.70 71.90 71.32 72.08 72.16 71.87 71.32 72.38 72.22 72.24 71.97
59.21 56.57 52.71 59.55 62.41 63.32 61.26 54.31 61.45 63.10 61.27 60.38 61.36 62.34 63.08 63.58 63.52 65.66 67.25 66.35 68.58 70.27 70.41 71.40 73.33 72.73 71.85 71.46 71.67 71.43 69.92 70.47 70.68 72.36 73.19 71.58 72.57 72.90 72.37 72.83 72.31 72.41 72.29 72.52 71.84 71.51 71.15 70.94 71.06
54.78 50.19 52.81 56.53 61.53 61.25 60.60 56.53 60.62 63.85 60.94 60.03 60.65 62.45 62.60 63.15 63.13 64.29 66.75 66.90 69.62 70.15 70.06 70.63 71.50 71.80 72.32 71.15 71.38 71.03 69.68 70.59 71.69 72.56 73.24 71.47 73.29 73.85 72.82 72.99 72.65 72.49 72.86 72.31 71.67 71.59 70.35 69.21 69.33
49.95 52.59 55.94 53.91 58.87 58.99 58.17 57.76 61.50 63.25 62.63 61.78 61.02 61.83 61.87 62.88 63.88 65.12 65.96 68.11 69.38 69.21 69.87 69.52 71.01 70.44 71.98 71.14 70.85 71.34 71.07 70.05 71.51 72.36 72.43 73.26 73.11 73.49 72.22 73.00 73.14 72.51 71.97 72.88 72.29 71.40 71.44 69.82 69.49
55.58 54.65 53.82 58.02 60.67 59.41 56.13 56.23 58.74 61.15 60.04 62.31 62.98 61.80 62.52 63.44 65.23 66.76 67.76 68.75 69.41 68.83 68.28 68.90 69.42 70.55 71.68 70.07 69.07 69.25 69.53 70.33 70.45 72.41 72.89 73.24 72.77 73.33 72.11 72.80 72.61 72.39 71.92 71.39 71.84 71.45 70.01 70.24 71.10
55.62 53.53 53.16 57.82 60.33 58.80 58.05 56.11 59.90 59.61 61.92 62.08 62.99 62.83 62.94 63.88 64.43 66.16 67.99 68.57 68.78 68.56 69.08 69.08 69.45 71.41 71.87 70.96 70.87 71.48 71.07 70.07 71.14 72.58 71.95 72.34 72.83 73.17 74.13 73.79 72.57 72.11 71.95 71.17 71.24 71.08 70.40 70.31 70.84
55.32 52.04 53.81 54.37 57.76 58.42 56.87 53.16 55.61 60.55 62.03 63.03 63.18 64.60 64.21 63.88 63.61 64.76 67.22 67.03 68.54 68.28 68.47 69.94 69.78 70.58 71.88 71.95 71.99 71.76 72.40 71.84 71.90 69.40 69.90 68.96 70.10 72.20 73.00 73.03 71.60 71.15 72.56 71.91 71.12 70.42 69.90 68.38 69.75
52.53 57.40 56.93 56.85 52.58 46.45 55.37 44.21 51.46 56.33 57.64 59.14 59.26 62.33 64.36 64.30 65.14 65.31 65.12 67.47 68.65 68.67 69.48 71.25 70.76 70.36 71.58 71.02 71.42 70.08 68.43 68.11 69.90 69.53 67.54 70.24 71.12 72.27 74.56 73.24 73.62 72.88 72.73 72.16 71.74 71.79 70.96 69.39 67.50
53.67 58.01 55.85 55.65 50.88 49.48 50.93 47.40 51.76 54.19 54.55 56.49 58.33 60.26 64.99 65.20 65.51 65.41 65.55 67.46 69.90 70.29 70.57 72.22 71.21 70.87 71.36 72.06 71.15 71.27 68.55 69.20 71.14 70.35 69.89 70.17 70.74 73.67 73.87 72.37 72.33 72.34 71.51 71.46 71.46 70.43 70.27 69.91 69.32
59.04 55.45 52.45 51.49 48.90 42.94 46.19 46.95 47.58 51.83 54.46 56.63 60.00 61.67 64.40 65.92 66.66 66.69 67.24 68.27 69.22 71.57 72.19 72.09 70.75 70.30 70.65 72.81 72.73 70.87 69.92 70.58 70.36 69.90 70.00 71.13 72.17 72.22 72.20 72.10 71.30 69.53 68.68 69.02 68.84 67.76 67.84 67.92 69.98
54.41 48.06 43.08 43.20 41.55 41.27 46.43 44.50 47.64 54.56 57.77 58.54 59.30 60.77 61.44 66.31 66.47 66.52 66.59 67.50 68.58 70.58 71.74 71.88 70.99 70.59 71.65 72.33 71.73 71.47 71.09 70.91 70.07 70.61 70.68 69.97 70.21 70.93 70.00 69.73 67.24 66.77 66.05 66.45 66.37 66.50 65.81 65.31 64.94
50.42 48.00 43.23 38.84 38.92 42.07 47.86 44.17 50.39 56.79 59.13 59.92 60.90 61.27 63.03 66.10 66.70 66.74 67.20 68.00 68.88 70.55 71.65 71.92 71.50 71.39 71.62 71.73 71.41 72.53 71.54 71.53 71.49 71.42 70.73 70.79 70.18 70.32 68.99 66.09 64.68 64.94 65.78 65.05 66.34 66.03 65.63 64.59 64.72
50.66 47.02 49.55 44.20 42.96 41.55 44.96 49.30 53.80 57.41 58.03 59.56 60.43 61.50 64.80 66.05 66.61 67.07 67.56 68.47 68.84 71.24 71.40 71.47 70.76 71.13 71.83 71.78 71.89 71.69 71.98 72.52 72.40 72.07 70.26 69.26 68.60 66.57 64.72 63.76 65.05 65.27 64.28 64.05 63.98 62.98 62.90 62.54 62.51
53.82 53.11 43.97 42.10 39.59 38.75 42.46 45.23 46.61 52.25 55.89 57.92 61.38 61.09 61.74 65.67 66.56 67.04 67.75 68.03 69.47 71.27 71.58 71.47 71.34 71.51 71.69 72.02 71.79 72.91 72.53 72.62 70.20 69.56 65.59 64.69 64.72 64.11 63.69 64.37 64.32 63.95 63.79 63.61 62.08 61.11 62.12 61.12 61.89
47.82 45.87 43.91 44.40 43.16 39.15 37.81 43.76 52.44 52.87 55.67 57.68 58.83 61.40 62.83 65.42 66.16 67.03 67.76 68.20 69.00 70.26 71.32 71.24 71.44 71.30 71.34 71.26 71.64 72.54 72.92 71.52 67.75 65.80 64.81 63.89 63.85 63.51 63.73 64.23 63.79 63.87 63.96 63.44 61.95 61.99 61.89 61.54 61.48
48.22 45.93 43.81 41.06 40.32 42.22 41.95 44.09 53.95 55.00 57.66 58.48 59.86 61.05 64.16 66.96 66.78 67.18 67.46 67.64 67.44 69.46 70.62 71.04 71.38 71.53 71.61 70.74 71.98 72.74 71.95 69.06 65.91 63.78 64.08 63.68 63.05 64.04 63.79 63.95 63.18 63.56 62.72 61.72 62.49 61.79 61.63 61.04 61.99
MSLP
1005.41 1006.41 1006.48 1006.69 1007.15 1006.91 1006.73 1007.01 1006.50 1006.43 1006.48 1006.74 1006.57 1007.24 1008.51 1008.92 1009.99 1012.29 1012.54 1013.12 1013.56 1013.71 1013.71 1013.98 1013.80 1013.80 1013.86 1013.96 1013.90 1013.93 1013.97 1013.96 1014.05 1014.21 1014.19 1014.36 1014.45 1014.46 1014.64 1014.66 1014.97 1014.84 1015.44 1015.52 1015.56 1015.61 1015.66 1015.62 1015.81
1004.93 1005.40 1005.72 1006.46 1006.90 1006.97 1006.63 1006.20 1006.58 1006.60 1006.90 1006.83 1007.29 1007.71 1008.39 1010.39 1010.51 1012.02 1012.95 1013.51 1013.51 1013.58 1013.80 1013.91 1013.92 1013.99 1014.10 1014.18 1014.14 1014.20 1014.13 1014.10 1014.31 1014.33 1014.42 1014.59 1014.65 1014.73 1014.92 1014.91 1015.05 1015.47 1015.61 1015.80 1015.74 1015.69 1015.74 1015.85 1016.08
1006.20 1005.79 1006.46 1006.47 1006.69 1006.45 1006.11 1006.23 1006.39 1006.57 1006.64 1006.50 1007.39 1007.83 1009.18 1010.77 1011.31 1011.89 1012.56 1013.36 1013.59 1013.86 1013.90 1013.95 1014.03 1014.12 1014.20 1014.28 1014.39 1014.43 1014.42 1014.45 1014.48 1014.53 1014.66 1014.82 1014.98 1015.00 1015.23 1015.27 1015.40 1015.45 1015.55 1015.89 1015.85 1015.88 1016.02 1016.19 1016.34
1006.03 1006.43 1006.54 1006.27 1006.22 1005.98 1005.49 1006.27 1006.41 1006.57 1007.12 1007.15 1007.60 1008.69 1009.82 1010.26 1011.06 1011.65 1012.54 1013.17 1013.61 1014.06 1014.08 1014.02 1014.10 1014.18 1014.32 1014.48 1014.60 1014.65 1014.70 1014.75 1014.84 1014.82 1014.90 1015.04 1015.18 1015.27 1015.40 1015.44 1015.53 1015.65 1015.64 1015.84 1015.97 1016.15 1016.31 1016.41 1016.50
1006.09 1006.65 1007.00 1006.51 1006.07 1005.74 1005.43 1005.54 1006.20 1006.81 1007.30 1007.73 1007.97 1009.47 1010.00 1010.69 1011.33 1012.05 1012.71 1013.40 1013.61 1013.98 1013.99 1014.07 1014.19 1014.38 1014.52 1014.67 1014.72 1014.74 1014.80 1014.85 1014.92 1014.95 1015.10 1015.13 1015.25 1015.36 1015.52 1015.59 1015.67 1015.79 1015.68 1015.90 1016.16 1016.28 1016.40 1016.54 1016.67
1006.46 1007.10 1007.34 1006.95 1006.22 1005.80 1005.81 1005.62 1006.05 1006.69 1007.32 1008.05 1008.46 1009.56 1010.70 1011.06 1011.70 1012.61 1013.00 1013.41 1013.66 1013.71 1013.98 1014.15 1014.37 1014.51 1014.67 1014.76 1014.77 1014.87 1014.96 1015.06 1015.15 1015.17 1015.31 1015.38 1015.51 1015.58 1015.63 1015.74 1015.84 1015.97 1016.09 1016.23 1016.40 1016.43 1016.61 1016.61 1016.77
1006.57 1007.49 1007.65 1007.15 1006.50 1005.95 1005.72 1005.78 1005.95 1006.75 1007.55 1008.14 1008.14 1009.84 1011.45 1011.50 1011.79 1012.47 1012.96 1013.40 1013.69 1013.73 1013.98 1014.29 1014.49 1014.66 1014.79 1014.86 1014.90 1015.00 1015.12 1015.26 1015.38 1015.44 1015.60 1015.60 1015.62 1015.78 1015.81 1015.87 1016.07 1016.15 1016.31 1016.51 1016.62 1016.64 1016.77 1016.81 1016.94
1006.33 1007.48 1007.70 1007.19 1006.36 1006.05 1005.53 1005.64 1006.12 1006.50 1007.53 1008.14 1008.39 1009.67 1010.68 1011.63 1011.91 1012.44 1013.14 1013.55 1013.87 1014.13 1014.20 1014.50 1014.68 1014.85 1015.03 1015.09 1015.06 1015.12 1015.30 1015.42 1015.61 1015.69 1015.73 1015.80 1015.78 1015.93 1016.08 1016.26 1016.24 1016.29 1016.47 1016.62 1016.78 1016.90 1016.95 1016.98 1016.84
1006.17 1007.07 1007.62 1006.80 1005.78 1005.60 1005.36 1005.48 1006.45 1006.74 1007.63 1008.45 1008.27 1008.99 1010.01 1011.07 1011.95 1012.77 1013.48 1014.04 1014.34 1014.51 1014.60 1014.71 1014.81 1014.97 1015.10 1015.23 1015.24 1015.31 1015.54 1015.69 1015.70 1015.75 1015.82 1015.97 1016.21 1016.17 1016.31 1016.49 1016.51 1016.54 1016.63 1016.75 1016.91 1017.01 1017.09 1017.05 1016.91
1006.92 1007.11 1006.67 1005.82 1005.27 1005.27 1005.47 1005.50 1006.39 1007.33 1008.19 1008.79 1008.90 1009.55 1010.41 1011.12 1011.93 1012.61 1013.19 1013.82 1014.25 1014.45 1014.77 1014.96 1014.81 1014.77 1014.90 1014.95 1015.13 1015.50 1015.75 1015.83 1016.01 1016.03 1016.12 1016.19 1016.26 1016.46 1016.57 1016.73 1016.71 1016.78 1016.86 1016.97 1016.99 1017.05 1017.14 1017.14 1017.18
1006.60 1006.79 1006.41 1004.98 1004.98 1005.31 1005.60 1005.84 1006.27 1007.39 1008.51 1008.35 1008.87 1009.55 1010.41 1011.05 1011.88 1012.30 1012.84 1013.19 1013.38 1013.93 1014.54 1014.86 1014.66 1014.68 1014.79 1014.99 1015.34 1015.45 1015.89 1016.00 1016.10 1016.21 1016.29 1016.32 1016.40 1016.55 1016.69 1016.84 1016.76 1016.92 1016.92 1017.13 1017.11 1017.19 1017.18 1017.19 1017.14
1006.50 1006.48 1005.70 1005.23 1005.86 1005.64 1005.86 1006.22 1006.75 1007.29 1008.39 1008.81 1009.03 1009.46 1010.48 1011.14 1011.45 1011.74 1012.30 1012.90 1013.22 1013.72 1014.15 1014.59 1014.54 1014.79 1014.91 1015.03 1015.53 1015.54 1015.74 1016.11 1016.17 1016.11 1016.17 1016.32 1016.52 1016.65 1016.76 1017.02 1017.03 1016.96 1016.86 1016.94 1017.08 1017.17 1017.22 1017.25 1017.22
1006.74 1006.86 1006.07 1006.10 1006.93 1007.17 1006.52 1006.61 1007.01 1008.01 1008.53 1009.28 1009.51 1009.78 1010.43 1010.73 1011.07 1011.44 1011.68 1012.30 1012.92 1013.43 1014.08 1014.36 1014.45 1014.81 1014.72 1015.15 1015.39 1015.54 1015.54 1015.87 1015.92 1015.85 1015.95 1016.03 1016.21 1016.43 1016.48 1016.65 1016.81 1016.75 1016.77 1016.77 1016.83 1016.81 1016.81 1016.91 1016.75
1006.46 1007.14 1007.12 1007.34 1007.43 1007.86 1008.39 1008.23 1007.32 1008.54 1008.64 1009.20 1009.72 1010.05 1010.10 1010.43 1010.90 1011.43 1011.73 1012.30 1012.72 1013.20 1013.77 1014.23 1014.44 1014.41 1014.69 1015.15 1015.18 1015.30 1015.59 1015.60 1015.74 1015.68 1015.61 1015.57 1015.68 1015.98 1016.11 1016.25 1016.55 1016.58 1016.59 1016.63 1016.81 1016.82 1016.59 1016.72 1016.44
1006.71 1007.47 1007.77 1007.97 1007.65 1008.39 1007.83 1009.18 1009.43 1008.93 1008.64 1009.13 1009.50 1009.86 1010.15 1010.25 1010.82 1011.15 1011.37 1011.82 1012.36 1012.76 1013.27 1013.87 1014.28 1014.25 1014.64 1014.78 1014.83 1015.16 1015.40 1015.45 1015.44 1015.41 1015.40 1015.43 1015.48 1015.51 1015.58 1015.86 1016.31 1016.07 1016.21 1016.26 1016.38 1016.20 1016.14 1016.29 1015.86
1007.53 1007.92 1008.83 1009.00 1008.10 1008.47 1008.35 1010.02 1010.30 1009.85 1009.22 1009.42 1009.59 1009.68 1009.90 1010.14 1010.28 1010.79 1011.03 1011.57 1012.13 1012.50 1013.01 1013.43 1013.77 1014.24 1014.55 1014.71 1014.87 1015.23 1015.31 1015.24 1015.10 1015.15 1015.22 1015.35 1015.37 1015.50 1015.54 1015.65 1015.84 1015.93 1016.07 1016.19 1016.27 1016.20 1016.29 1016.32 1016.12
1008.40 1008.69 1009.36 1009.17 1008.25 1007.90 1008.83 1009.91 1009.92 1010.24 1009.85 1009.75 1009.75 1009.65 1009.72 1009.93 1010.04 1010.42 1010.79 1011.38 1011.62 1012.03 1012.68 1013.16 1013.37 1013.82 1014.32 1014.78 1014.82 1014.98 1015.05 1015.05 1015.04 1015.07 1015.13 1015.09 1015.08 1015.00 1015.11 1015.31 1015.28 1015.33 1015.56 1015.72 1015.75 1015.86 1016.00 1015.96 1015.91
1008.73 1008.85 1009.14 1009.51 1009.38 1008.86 1009.95 1010.11 1010.03 1009.91 1009.98 1010.45 1010.09 1009.95 1009.78 1009.84 1009.84 1009.97 1010.50 1011.03 1011.39 1011.87 1012.41 1012.83 1013.25 1013.63 1014.18 1014.75 1014.96 1015.22 1015.36 1015.36 1015.21 1014.94 1014.82 1014.77 1014.86 1014.73 1014.96 1015.02 1014.96 1015.01 1015.42 1015.51 1015.48 1015.70 1015.77 1015.92 1015.87
1008.12 1008.76 1009.31 1009.85 1009.34 1009.62 1010.10 1009.92 1009.74 1010.24 1010.07 1009.90 1010.41 1010.64 1009.76 1009.49 1009.39 1009.59 1010.14 1010.79 1011.53 1011.99 1012.40 1012.73 1013.15 1013.63 1014.05 1014.93 1015.37 1015.61 1015.42 1015.40 1015.30 1014.69 1014.34 1014.51 1014.53 1014.56 1014.71 1014.73 1014.87 1014.85 1015.25 1015.43 1015.41 1015.50 1015.88 1015.99 1015.91
1007.96 1008.22 1008.88 1008.94 1009.02 1008.61 1009.58 1010.35 1009.80 1009.89 1009.37 1008.74 1009.01 1009.79 1009.93 1010.05 1009.80 1009.76 1009.92 1010.52 1010.98 1011.60 1011.94 1012.47 1012.80 1013.40 1013.64 1014.10 1014.71 1014.75 1014.73 1014.87 1014.70 1014.55 1014.64 1014.62 1014.62 1014.76 1014.60 1014.70 1014.90 1015.11 1015.37 1015.49 1015.51 1015.66 1015.85 1015.91 1015.74
1007.07 1007.62 1007.98 1008.01 1008.63 1009.36 1010.06 1010.83 1009.89 1008.87 1008.39 1008.24 1008.40 1008.47 1009.25 1009.46 1009.62 1009.64 1010.02 1010.29 1010.81 1011.45 1011.72 1012.10 1012.55 1013.04 1013.38 1013.72 1014.00 1014.37 1014.58 1014.82 1014.98 1015.11 1015.10 1014.80 1014.73 1014.84 1014.78 1014.78 1015.03 1015.22 1015.38 1015.44 1015.59 1015.68 1015.74 1015.89 1015.72
1005.48 1006.23 1006.97 1007.52 1008.92 1009.34 1009.81 1010.24 1009.50 1009.08 1008.46 1008.04 1007.73 1007.42 1008.13 1008.80 1009.11 1009.02 1009.86 1010.30 1010.43 1010.91 1011.25 1011.76 1012.34 1012.94 1013.08 1013.33 1013.67 1014.09 1014.31 1014.69 1014.65 1014.83 1014.96 1014.71 1014.60 1014.83 1014.47 1014.78 1014.95 1015.20 1015.41 1015.37 1015.57 1015.54 1015.45 1015.65 1015.96
1005.09 1005.45 1006.55 1007.60 1008.68 1009.47 1010.18 1010.21 1008.24 1007.81 1007.56 1006.87 1006.78 1006.77 1007.02 1007.81 1008.76 1009.37 1009.12 1009.65 1009.95 1010.57 1011.21 1011.41 1012.04 1012.54 1012.95 1013.22 1013.58 1014.10 1014.26 1014.26 1014.32 1014.60 1014.69 1014.68 1014.73 1014.62 1014.53 1014.76 1014.91 1015.36 1015.57 1015.73 1015.76 1015.71 1015.69 1015.63 1015.80
1004.41 1005.84 1006.80 1008.18 1008.96 1010.50 1010.39 1010.58 1008.71 1007.50 1006.42 1006.08 1005.97 1006.20 1006.24 1006.98 1007.59 1008.58 1008.75 1009.35 1009.83 1010.37 1010.99 1011.41 1012.03 1012.46 1012.63 1012.83 1013.30 1013.80 1014.23 1014.30 1014.56 1014.79 1015.00 1014.89 1014.96 1014.94 1014.72 1014.78 1015.01 1015.26 1015.73 1015.81 1015.89 1015.90 1015.81 1015.77 1015.76
1004.76 1006.19 1007.70 1009.58 1010.97 1011.18 1010.55 1010.36 1008.11 1006.00 1005.43 1005.89 1005.73 1005.33 1005.70 1005.92 1006.69 1007.71 1008.36 1008.92 1009.49 1010.15 1010.75 1011.34 1011.85 1012.18 1012.34 1012.54 1013.01 1013.37 1013.64 1013.88 1014.22 1014.55 1014.73 1014.85 1014.97 1015.10 1015.17 1015.22 1015.33 1015.54 1015.64 1015.71 1015.80 1015.87 1015.95 1015.94 1016.05
1003.64 1005.16 1007.39 1009.94 1011.65 1011.32 1010.72 1009.62 1006.76 1005.42 1005.02 1005.18 1005.24 1004.38 1004.39 1005.09 1006.03 1007.01 1007.48 1008.16 1008.92 1009.63 1010.32 1010.91 1011.52 1011.77 1012.12 1012.38 1012.73 1012.91 1013.18 1013.56 1013.76 1013.89 1014.16 1014.46 1014.72 1014.94 1015.12 1015.16 1015.26 1015.44 1015.63 1015.85 1015.96 1016.26 1016.27 1016.29 1016.26
1002.81 1004.45 1005.86 1008.96 1011.09 1011.42 1010.27 1008.61 1006.42 1005.62 1005.20 1004.82 1004.62 1004.38 1004.53 1005.01 1005.58 1006.53 1007.28 1007.92 1008.56 1009.25 1009.85 1010.35 1011.00 1011.40 1011.63 1011.84 1012.21 1012.58 1012.81 1013.17 1013.58 1013.92 1014.11 1014.34 1014.56 1014.86 1015.12 1015.15 1015.32 1015.62 1015.72 1016.04 1016.30 1016.34 1016.37 1016.35 1016.38
1001.61 1003.49 1005.80 1008.41 1010.41 1011.18 1010.17 1009.06 1007.36 1005.82 1005.43 1004.73 1004.29 1004.53 1005.37 1004.87 1005.48 1006.32 1006.98 1007.64 1008.30 1008.75 1009.40 1010.06 1010.66 1011.20 1011.58 1011.80 1012.06 1012.43 1012.77 1013.09 1013.48 1013.77 1014.21 1014.45 1014.77 1014.98 1015.13 1015.29 1015.34 1015.53 1015.74 1015.99 1016.23 1016.22 1016.14 1016.22 1016.39
1002.03 1003.12 1005.28 1007.44 1009.06 1010.20 1010.06 1008.15 1005.02 1004.56 1004.81 1004.60 1003.81 1003.75 1004.73 1004.65 1005.35 1006.11 1006.84 1007.59 1008.17 1008.83 1009.51 1010.16 1010.83 1011.28 1011.73 1012.04 1012.37 1012.72 1013.08 1013.40 1013.70 1013.99 1014.41 1014.62 1014.88 1015.09 1015.27 1015.47 1015.67 1015.74 1015.82 1015.89 1016.12 1016.07 1016.01 1016.07 1016.25
1001.21 1002.62 1004.50 1006.94 1008.33 1008.89 1008.40 1005.95 1003.67 1003.84 1003.60 1003.98 1003.91 1004.11 1004.59 1004.64 1005.27 1005.92 1006.73 1007.60 1008.46 1009.03 1009.66 1010.23 1010.75 1011.34 1011.80 1012.19 1012.67 1013.13 1013.52 1013.94 1014.25 1014.57 1014.84 1015.08 1015.22 1015.39 1015.52 1015.59 1015.80 1015.92 1015.91 1015.81 1016.02 1016.23 1016.27 1016.12 1016.16
Wind_Speed
11 6 4 1 5 5 2 5 5 10 7 8 13 8 12 10 4 6 10 13 13 11 9 9 13 15 15 14 14 13 14 17 19 18 17 16 18 18 20 22 23 18 17 12 9 7 9 13 12
7 1 3 1 6 5 3 7 11 12 15 19 18 17 13 8 10 16 13 16 13 11 6 7 12 13 14 15 14 14 14 18 17 17 17 17 17 17 19 19 22 21 15 11 9 12 14 15 14
4 5 2 2 4 2 4 11 14 15 12 8 6 9 7 8 15 14 16 18 14 9 6 10 13 13 15 15 14 14 15 18 18 18 17 17 15 16 16 18 18 19 17 13 13 13 13 13 13
4 2 3 3 12 5 7 14 19 16 17 19 14 9 8 11 11 12 20 18 15 9 7 13 15 15 15 15 13 14 15 17 17 17 16 15 15 15 16 15 15 17 16 14 13 12 10 11 11
3 2 4 3 4 4 10 18 16 16 13 20 20 13 7 7 20 23 19 16 15 12 9 11 14 15 15 15 14 15 15 15 17 16 16 16 15 15 15 14 14 13 14 12 12 11 10 9 8
5 3 4 3 7 5 11 19 20 16 17 16 18 13 5 23 22 18 17 16 13 13 10 10 15 15 14 16 15 15 14 15 15 16 15 15 14 14 13 14 13 13 12 10 9 9 7 7 6
6 4 1 2 11 7 11 16 14 19 19 10 18 17 12 19 21 18 16 15 13 12 10 8 8 13 15 15 15 15 15 14 14 14 14 12 14 15 14 14 13 12 12 9 8 7 6 5 5
4 4 3 3 6 3 7 6 13 20 10 16 17 13 15 18 19 16 15 14 13 10 10 7 6 6 5 6 14 14 14 13 14 13 13 13 12 13 13 10 11 11 10 9 8 6 4 6 6
4 3 3 3 5 3 3 8 4 11 18 12 4 7 12 23 20 15 13 11 9 9 9 7 7 6 6 5 8 12 13 13 13 12 12 8 2 5 8 7 10 11 10 9 9 8 6 7 7
5 4 5 6 3 3 4 9 8 13 17 12 14 8 19 23 19 17 14 13 10 11 8 8 6 8 7 6 6 5 5 3 4 5 5 4 4 4 5 8 10 10 10 9 8 8 8 7 3
1 5 3 2 8 6 6 6 3 18 12 22 18 15 20 22 17 17 14 16 14 13 9 10 9 7 6 5 3 3 2 3 3 4 5 5 4 3 2 2 3 3 8 3 5 4 3 5 4
5 6 4 6 12 4 8 6 5 13 11 18 15 13 18 18 16 14 14 15 15 15 12 11 8 7 5 4 3 3 3 3 3 5 6 4 3 4 4 2 3 4 3 4 4 3 4 5 6
5 7 9 7 16 18 7 5 8 17 19 16 13 10 13 13 14 12 11 13 14 14 12 12 8 7 7 5 4 4 3 3 5 5 6 5 6 5 4 4 3 4 3 4 4 4 4 6 7
1 4 4 6 10 14 7 3 8 15 18 16 14 10 11 12 10 7 11 13 14 14 13 11 10 7 6 5 6 4 4 4 2 4 5 6 4 5 5 5 5 5 5 4 4 5 6 6 7
4 6 8 10 8 8 4 9 8 14 17 16 15 13 10 10 9 14 17 13 15 14 15 14 12 10 8 7 5 3 4 3 3 3 4 4 4 5 4 4 4 4 4 5 4 4 4 4 3
4 5 5 5 6 2 10 4 5 8 14 14 13 12 10 6 14 17 18 12 15 15 15 13 12 11 9 9 5 4 4 4 4 4 3 5 5 5 4 4 4 4 4 4 4 4 4 3 3
5 2 2 5 4 6 9 9 4 9 8 11 11 10 8 7 7 12 16 13 16 16 13 11 10 11 11 5 3 4 3 2 3 3 4 6 6 6 4 3 3 4 4 4 4 3 3 2 3
5 5 4 5 2 10 2 8 7 9 7 3 5 8 8 10 10 9 13 16 15 12 11 10 8 8 8 6 4 0 2 2 4 4 3 6 4 5 4 3 2 1 1 3 2 2 1 2 4
6 2 3 4 3 4 12 12 15 4 2 3 4 5 9 11 8 10 11 15 12 7 8 9 9 8 8 4 3 1 3 3 3 3 5 5 4 2 2 1 1 1 1 2 1 1 2 2 2
6 4 2 6 13 7 12 15 12 8 9 6 8 10 12 6 6 9 14 15 17 14 10 8 10 11 8 7 3 3 4 3 3 1 1 0 1 1 2 2 2 2 2 0 1 2 1 2 2
7 7 4 7 9 6 10 5 9 7 5 2 7 14 16 17 13 11 14 16 14 14 11 11 11 9 8 6 3 2 3 3 2 1 2 2 1 4 3 1 1 1 0 1 1 2 4 2 1
10 8 11 4 10 6 3 5 8 4 10 9 9 12 17 18 15 13 12 15 15 13 11 8 9 10 7 7 5 5 4 4 4 3 3 3 2 3 4 5 4 5 2 3 2 3 0 2 1
8 9 6 4 4 5 7 4 9 3 5 7 8 7 17 20 16 14 11 13 16 13 12 11 9 7 6 6 6 5 3 2 2 1 2 1 1 2 5 5 5 5 4 4 4 3 3 2 2
12 6 1 5 4 4 4 4 8 4 2 3 3 4 11 18 17 16 9 10 13 11 12 12 10 7 8 7 7 8 7 6 4 3 2 2 3 3 4 5 5 5 4 4 3 3 4 1 2
6 6 4 7 7 6 4 2 11 9 8 5 7 10 8 17 17 17 14 12 11 13 13 11 10 8 8 8 7 7 8 7 7 6 4 5 3 2 3 4 4 3 4 4 4 4 4 4 4
6 9 7 6 4 4 1 5 9 7 4 4 4 11 4 19 17 17 15 14 14 14 14 13 11 8 8 8 7 7 7 4 4 5 4 4 3 4 4 5 6 6 6 5 4 3 3 4 4
4 1 8 9 3 2 3 7 10 1 3 6 4 11 12 15 16 17 14 15 15 14 15 14 11 9 9 9 7 7 6 7 6 6 5 4 5 4 5 6 7 6 5 5 4 3 3 3 2
11 8 2 4 5 4 4 5 7 4 7 5 4 5 7 12 15 13 14 15 13 15 13 12 11 11 7 7 6 6 6 7 6 7 7 7 5 5 6 6 6 5 5 4 4 2 1 3 2
1 2 7 7 6 7 3 9 10 11 9 12 14 15 9 14 14 14 13 13 13 12 12 11 9 8 8 7 6 6 6 7 7 7 6 6 6 6 6 6 5 6 5 4 3 2 2 3 3
7 7 6 7 4 3 5 9 3 8 14 14 20 11 10 15 14 14 14 13 10 12 11 11 9 9 8 5 5 6 6 6 6 6 6 6 6 5 6 6 5 5 4 4 4 4 3 5 4
Wind_Direction
34 160 236 227 57 70 34 51 140 117 71 52 72 88 94 42 124 145 125 134 140 133 132 131 114 111 108 105 102 99 103 113 118 130 129 121 110 104 109 117 119 128 136 154 164 165 150 128 130
190 335 54 225 76 76 14 109 101 98 108 95 79 77 52 76 72 118 121 142 142 135 132 128 120 116 114 110 108 101 102 109 117 130 130 133 124 122 121 117 120 121 133 154 146 136 133 129 122
199 278 41 79 115 27 110 116 123 115 128 107 96 64 64 104 118 136 136 146 140 133 133 132 124 125 119 115 110 107 103 111 115 124 126 126 134 131 127 133 134 137 145 153 140 124 125 123 123
191 354 340 61 109 87 96 131 126 116 94 99 111 69 92 145 137 136 145 145 135 135 137 132 131 127 124 120 116 116 110 114 118 120 122 121 122 130 140 140 137 133 132 130 128 125 126 129 128
14 139 32 10 55 119 83 114 122 109 80 98 106 112 78 89 118 139 141 139 138 137 144 132 129 131 132 126 125 119 124 122 127 128 129 130 130 127 127 126 127 125 122 125 129 128 135 136 135
58 66 38 10 108 95 102 116 115 105 113 111 110 107 93 131 132 139 136 136 140 139 140 138 139 137 138 134 131 126 132 131 132 137 136 136 138 134 133 130 131 128 132 124 128 132 136 136 163
103 74 278 358 101 109 129 129 125 124 127 128 126 117 134 139 138 141 139 137 142 145 138 140 149 147 142 141 136 137 137 140 140 139 137 143 141 137 146 145 144 144 141 142 150 142 155 174 198
103 89 25 27 120 120 138 124 137 144 121 134 128 139 151 147 138 137 137 138 144 145 145 148 146 133 139 146 144 145 144 146 142 143 146 148 147 146 146 148 150 151 155 158 163 179 197 231 238
54 52 345 267 139 144 135 109 103 130 131 144 203 108 136 142 136 134 134 135 140 151 152 155 150 146 150 146 160 152 153 154 156 157 159 158 149 148 156 169 173 170 173 177 185 199 217 249 277
58 18 220 235 80 139 109 101 109 132 144 122 121 106 138 138 146 146 151 152 162 157 166 164 166 163 162 162 158 161 168 168 162 169 169 166 183 180 168 186 191 194 193 201 209 217 227 251 272
148 342 311 302 107 113 118 108 89 133 140 147 156 136 137 140 148 156 163 161 171 167 163 179 177 165 171 150 163 162 169 179 190 187 184 192 183 202 197 217 202 189 214 225 236 248 239 239 250
62 319 134 338 16 66 138 122 112 133 147 144 150 141 144 151 162 160 158 159 166 160 164 171 176 169 152 154 162 186 172 201 201 207 206 183 184 182 210 205 194 198 218 223 211 224 256 257 246
89 337 13 11 32 28 41 123 121 123 133 144 145 149 157 169 169 160 161 140 154 155 162 171 161 161 170 152 170 184 171 207 208 201 200 189 185 193 204 197 204 208 212 216 241 247 229 240 248
231 74 8 3 84 35 20 4 97 138 142 148 156 177 184 186 170 134 158 151 158 152 160 167 167 179 152 160 182 175 167 196 212 218 186 180 166 181 182 191 186 197 208 206 207 226 234 235 231
38 72 27 11 58 39 353 31 352 150 151 156 170 187 199 200 152 159 164 169 159 165 161 168 169 163 157 181 197 183 198 187 206 218 186 193 177 179 179 172 178 199 207 232 251 257 245 238 248
38 57 79 315 116 17 89 255 312 298 158 166 182 194 191 200 162 163 170 161 164 156 163 167 171 158 164 178 180 184 202 192 179 202 209 196 199 195 196 189 197 193 190 206 214 222 233 238 257
347 252 205 162 185 132 69 270 233 295 214 181 189 192 181 153 158 166 171 163 165 164 162 171 169 158 165 160 173 171 180 219 196 206 198 214 203 206 193 209 239 234 213 210 199 221 202 235 278
260 302 152 73 323 57 150 275 278 270 133 342 204 198 183 176 184 172 156 165 163 164 168 172 166 145 151 149 164 109 114 310 289 261 216 231 234 223 195 229 321 244 297 289 201 252 337 260 262
144 334 40 100 210 110 202 232 256 7 256 179 198 234 212 196 179 155 147 157 154 148 153 176 157 158 149 143 143 135 198 184 225 236 207 234 219 208 207 235 81 70 233 260 269 157 220 306 321
175 177 230 307 195 212 179 234 255 279 207 200 176 193 214 187 172 162 150 156 167 170 169 154 162 160 165 159 172 187 166 198 190 213 227 272 351 62 154 248 218 231 247 99 251 205 203 241 188
230 189 210 181 162 1 115 277 259 224 301 291 220 189 199 193 193 175 166 173 169 174 172 165 171 169 155 163 127 74 67 56 96 210 251 202 164 355 297 210 62 343 55 237 289 196 201 198 281
239 165 182 249 156 189 196 254 251 230 260 247 218 197 193 200 199 190 172 183 180 184 178 170 162 172 163 157 138 157 183 169 208 180 201 206 101 305 85 107 111 79 72 41 26 358 88 127 76
209 134 132 149 144 111 345 32 270 82 239 200 167 204 195 192 187 206 183 184 184 176 176 170 161 164 169 164 156 157 166 209 144 162 214 110 32 109 99 98 80 84 62 59 57 32 56 67 128
146 115 153 116 103 50 239 134 289 288 260 329 111 201 186 178 185 193 185 165 171 166 166 163 164 176 170 167 153 158 167 155 147 170 160 137 140 148 110 95 95 85 63 47 31 26 44 41 116
171 78 358 15 21 224 233 55 241 274 248 226 305 287 207 183 175 180 170 166 161 156 163 162 167 177 177 168 167 162 164 162 163 170 170 158 147 131 108 112 99 85 74 50 42 55 74 52 78
187 143 151 172 186 254 339 222 261 237 231 204 308 296 237 174 173 177 170 165 164 162 164 165 171 169 173 165 172 172 160 157 170 172 161 161 150 149 134 123 99 89 77 56 53 44 54 58 72
240 128 170 104 28 81 238 299 302 84 206 215 43 16 170 170 174 178 167 165 165 164 170 169 173 179 174 171 173 179 173 163 165 153 136 138 136 134 144 123 114 112 95 89 92 68 51 68 63
137 164 121 18 145 209 294 283 238 234 203 274 28 245 253 163 170 165 167 164 167 169 169 170 177 179 181 175 171 175 167 149 141 133 136 133 134 129 130 128 134 132 119 108 91 80 27 51 37
25 34 54 119 132 155 177 260 216 204 185 178 204 224 208 173 160 161 164 167 165 165 168 173 173 169 184 179 181 157 154 143 139 136 144 146 136 142 135 148 148 142 146 141 92 81 58 45 11
147 165 135 122 257 198 167 268 233 176 185 191 200 219 195 173 163 159 161 163 159 167 168 174 170 176 186 185 163 155 143 136 133 132 141 149 147 163 158 153 145 152 160 133 116 110 93 77 95